Time,TemperatureF,DewpointF,PressureIn,WindDirection,WindDirectionDegrees,WindSpeedMPH,WindSpeedGustMPH,Humidity,HourlyPrecipIn,Conditions,Clouds,dailyrainin,SoftwareType,DateUTC
2013-08-30 00:00:00,76.8,60.9,29.93,North,32767,0.0,0.0,58,0.00,,,0.00,Wunderground v.1.15,2013-08-30 05:00:00,
2013-08-30 00:05:00,76.6,60.2,29.93,North,32767,0.0,0.0,57,0.00,,,0.00,Wunderground v.1.15,2013-08-30 05:05:00,
2013-08-30 00:10:00,76.4,60.0,29.93,North,360,0.0,0.0,57,0.00,,,0.00,Wunderground v.1.15,2013-08-30 05:10:00,
2013-08-30 00:20:00,76.0,59.2,29.93,North,360,0.0,0.0,56,0.00,,,0.00,Wunderground v.1.15,2013-08-30 05:20:00,
2013-08-30 00:25:00,75.8,58.5,29.93,North,360,0.0,0.0,55,0.00,,,0.00,Wunderground v.1.15,2013-08-30 05:25:00,
2013-08-30 00:30:00,75.7,58.4,29.93,North,32767,0.0,0.0,55,0.00,,,0.00,Wunderground v.1.15,2013-08-30 05:30:00,
2013-08-30 00:35:00,75.4,58.1,29.93,North,32767,0.0,0.0,55,0.00,,,0.00,Wunderground v.1.15,2013-08-30 05:35:00,
2013-08-30 00:40:00,75.3,57.5,29.93,North,32767,0.0,0.0,54,0.00,,,0.00,Wunderground v.1.15,2013-08-30 05:40:00,
2013-08-30 00:45:00,75.2,56.9,29.93,North,32767,0.0,0.0,53,0.00,,,0.00,Wunderground v.1.15,2013-08-30 05:45:00,
2013-08-30 00:50:00,75.0,56.7,29.93,North,360,0.0,0.0,53,0.00,,,0.00,Wunderground v.1.15,2013-08-30 05:50:00,
2013-08-30 00:55:00,74.8,56.0,29.93,North,32767,0.0,0.0,52,0.00,,,0.00,Wunderground v.1.15,2013-08-30 05:55:00,
2013-08-30 01:00:00,74.7,55.4,29.93,North,32767,0.0,0.0,51,0.00,,,0.00,Wunderground v.1.15,2013-08-30 06:00:00,
2013-08-30 01:10:00,74.4,55.1,29.93,North,32767,0.0,0.0,51,0.00,,,0.00,Wunderground v.1.15,2013-08-30 06:10:00,
2013-08-30 01:15:00,74.4,55.1,29.93,North,32767,0.0,0.0,51,0.00,,,0.00,Wunderground v.1.15,2013-08-30 06:15:00,
2013-08-30 01:20:00,74.2,54.4,29.93,North,360,0.0,0.0,50,0.00,,,0.00,Wunderground v.1.15,2013-08-30 06:20:00,
2013-08-30 01:25:00,74.2,53.8,29.93,North,32767,0.0,0.0,49,0.00,,,0.00,Wunderground v.1.15,2013-08-30 06:25:00,
2013-08-30 01:30:00,74.1,53.7,29.93,North,32767,0.0,0.0,49,0.00,,,0.00,Wunderground v.1.15,2013-08-30 06:30:00,
2013-08-30 01:40:00,74.0,53.6,29.93,North,32767,0.0,0.0,49,0.00,,,0.00,Wunderground v.1.15,2013-08-30 06:40:00,
2013-08-30 01:45:00,73.9,53.5,29.93,North,32767,0.0,0.0,49,0.00,,,0.00,Wunderground v.1.15,2013-08-30 06:45:00,
2013-08-30 01:50:00,73.8,53.4,29.93,North,360,0.0,0.0,49,0.00,,,0.00,Wunderground v.1.15,2013-08-30 06:50:00,
2013-08-30 02:00:00,73.7,52.8,29.93,North,32767,0.0,0.0,48,0.00,,,0.00,Wunderground v.1.15,2013-08-30 07:00:00,
2013-08-30 02:05:00,73.6,52.7,29.93,North,32767,0.0,0.0,48,0.00,,,0.00,Wunderground v.1.15,2013-08-30 07:05:00,
2013-08-30 02:10:00,73.6,52.1,29.93,North,32767,0.0,0.0,47,0.00,,,0.00,Wunderground v.1.15,2013-08-30 07:10:00,
2013-08-30 02:20:00,73.4,51.9,29.93,North,32767,0.0,0.0,47,0.00,,,0.00,Wunderground v.1.15,2013-08-30 07:20:00,
2013-08-30 02:30:00,73.2,51.8,29.93,North,360,0.0,0.0,47,0.00,,,0.00,Wunderground v.1.15,2013-08-30 07:30:00,
2013-08-30 02:35:00,73.2,51.2,29.93,North,360,0.0,0.0,46,0.00,,,0.00,Wunderground v.1.15,2013-08-30 07:35:00,
2013-08-30 02:40:00,73.2,51.2,29.93,North,32767,0.0,0.0,46,0.00,,,0.00,Wunderground v.1.15,2013-08-30 07:40:00,
2013-08-30 02:45:00,73.1,51.1,29.93,North,32767,0.0,0.0,46,0.00,,,0.00,Wunderground v.1.15,2013-08-30 07:45:00,
2013-08-30 02:50:00,73.1,51.1,29.93,North,32767,0.0,0.0,46,0.00,,,0.00,Wunderground v.1.15,2013-08-30 07:50:00,
2013-08-30 02:55:00,73.1,51.1,29.93,North,32767,0.0,0.0,46,0.00,,,0.00,Wunderground v.1.15,2013-08-30 07:55:00,
2013-08-30 03:05:00,73.1,50.5,29.93,North,360,0.0,0.0,45,0.00,,,0.00,Wunderground v.1.15,2013-08-30 08:05:00,
2013-08-30 03:10:00,73.0,50.4,29.93,North,360,0.0,0.0,45,0.00,,,0.00,Wunderground v.1.15,2013-08-30 08:10:00,
2013-08-30 03:15:00,73.0,50.4,29.93,North,32767,0.0,0.0,45,0.00,,,0.00,Wunderground v.1.15,2013-08-30 08:15:00,
2013-08-30 03:20:00,73.0,50.4,29.93,North,32767,0.0,0.0,45,0.00,,,0.00,Wunderground v.1.15,2013-08-30 08:20:00,
2013-08-30 03:25:00,73.0,50.4,29.93,North,32767,0.0,0.0,45,0.00,,,0.00,Wunderground v.1.15,2013-08-30 08:25:00,
2013-08-30 03:30:00,73.0,49.8,29.93,North,360,0.0,0.0,44,0.00,,,0.00,Wunderground v.1.15,2013-08-30 08:30:00,
2013-08-30 03:35:00,73.0,49.8,29.93,North,32767,0.0,0.0,44,0.00,,,0.00,Wunderground v.1.15,2013-08-30 08:35:00,
2013-08-30 03:40:00,73.0,49.8,29.93,North,32767,0.0,0.0,44,0.00,,,0.00,Wunderground v.1.15,2013-08-30 08:40:00,
2013-08-30 03:45:00,73.0,49.8,29.93,North,360,0.0,0.0,44,0.00,,,0.00,Wunderground v.1.15,2013-08-30 08:45:00,
2013-08-30 03:50:00,73.0,49.8,29.93,North,32767,0.0,0.0,44,0.00,,,0.00,Wunderground v.1.15,2013-08-30 08:50:00,
2013-08-30 03:55:00,73.0,49.8,29.93,North,32767,0.0,0.0,44,0.00,,,0.00,Wunderground v.1.15,2013-08-30 08:55:00,
2013-08-30 04:00:00,73.0,49.8,29.93,North,32767,0.0,0.0,44,0.00,,,0.00,Wunderground v.1.15,2013-08-30 09:00:00,
2013-08-30 04:05:00,73.0,49.2,29.93,North,32767,0.0,0.0,43,0.00,,,0.00,Wunderground v.1.15,2013-08-30 09:05:00,
2013-08-30 04:10:00,73.1,49.3,29.93,North,360,0.0,0.0,43,0.00,,,0.00,Wunderground v.1.15,2013-08-30 09:10:00,
2013-08-30 04:15:00,73.2,49.4,29.92,North,32767,0.0,0.0,43,0.00,,,0.00,Wunderground v.1.15,2013-08-30 09:15:00,
2013-08-30 04:20:00,73.2,49.4,29.92,North,32767,0.0,0.0,43,0.00,,,0.00,Wunderground v.1.15,2013-08-30 09:20:00,
2013-08-30 04:30:00,73.2,49.4,29.92,North,32767,0.0,0.0,43,0.00,,,0.00,Wunderground v.1.15,2013-08-30 09:30:00,
2013-08-30 04:35:00,73.3,49.4,29.92,North,32767,0.0,0.0,43,0.00,,,0.00,Wunderground v.1.15,2013-08-30 09:35:00,
2013-08-30 04:40:00,73.3,50.1,29.93,North,360,0.0,0.0,44,0.00,,,0.00,Wunderground v.1.15,2013-08-30 09:40:00,
2013-08-30 04:50:00,73.2,50.0,29.93,North,32767,0.0,0.0,44,0.00,,,0.00,Wunderground v.1.15,2013-08-30 09:50:00,
2013-08-30 04:55:00,73.1,49.9,29.93,North,360,0.0,0.0,44,0.00,,,0.00,Wunderground v.1.15,2013-08-30 09:55:00,
2013-08-30 05:00:00,73.1,50.5,29.93,North,32767,0.0,0.0,45,0.00,,,0.00,Wunderground v.1.15,2013-08-30 10:00:00,
2013-08-30 05:10:00,73.0,50.4,29.93,North,32767,0.0,0.0,45,0.00,,,0.00,Wunderground v.1.15,2013-08-30 10:10:00,
2013-08-30 05:15:00,72.9,50.3,29.93,North,32767,0.0,0.0,45,0.00,,,0.00,Wunderground v.1.15,2013-08-30 10:15:00,
2013-08-30 05:20:00,72.8,50.2,29.93,North,360,0.0,0.0,45,0.00,,,0.00,Wunderground v.1.15,2013-08-30 10:20:00,
2013-08-30 05:30:00,72.6,50.0,29.93,North,32767,0.0,0.0,45,0.00,,,0.00,Wunderground v.1.15,2013-08-30 10:30:00,
2013-08-30 05:40:00,72.5,49.9,29.93,North,360,0.0,0.0,45,0.00,,,0.00,Wunderground v.1.15,2013-08-30 10:40:00,
2013-08-30 05:50:00,72.5,49.3,29.93,North,360,0.0,0.0,44,0.00,,,0.00,Wunderground v.1.15,2013-08-30 10:50:00,
2013-08-30 05:55:00,72.4,49.3,29.93,North,360,0.0,0.0,44,0.00,,,0.00,Wunderground v.1.15,2013-08-30 10:55:00,
2013-08-30 06:00:00,72.4,49.3,29.93,North,32767,0.0,0.0,44,0.00,,,0.00,Wunderground v.1.15,2013-08-30 11:00:00,
2013-08-30 06:05:00,72.4,49.3,29.93,North,32767,0.0,0.0,44,0.00,,,0.00,Wunderground v.1.15,2013-08-30 11:05:00,
2013-08-30 06:10:00,72.4,49.3,29.93,North,32767,0.0,0.0,44,0.00,,,0.00,Wunderground v.1.15,2013-08-30 11:10:00,
2013-08-30 06:15:00,72.3,49.2,29.93,North,32767,0.0,0.0,44,0.00,,,0.00,Wunderground v.1.15,2013-08-30 11:15:00,
2013-08-30 06:20:00,72.2,49.1,29.93,North,360,0.0,0.0,44,0.00,,,0.00,Wunderground v.1.15,2013-08-30 11:20:00,
2013-08-30 06:25:00,72.1,49.0,29.93,North,32767,0.0,0.0,44,0.00,,,0.00,Wunderground v.1.15,2013-08-30 11:25:00,
2013-08-30 06:35:00,71.9,48.2,29.93,North,32767,0.0,0.0,43,0.00,,,0.00,Wunderground v.1.15,2013-08-30 11:35:00,
2013-08-30 06:40:00,71.9,48.2,29.93,North,32767,0.0,0.0,43,0.00,,,0.00,Wunderground v.1.15,2013-08-30 11:40:00,
2013-08-30 06:45:00,71.8,48.1,29.94,North,32767,0.0,0.0,43,0.00,,,0.00,Wunderground v.1.15,2013-08-30 11:45:00,
2013-08-30 06:50:00,71.7,48.0,29.94,North,360,0.0,0.0,43,0.00,,,0.00,Wunderground v.1.15,2013-08-30 11:50:00,
2013-08-30 07:00:00,71.6,47.9,29.94,North,360,0.0,0.0,43,0.00,,,0.00,Wunderground v.1.15,2013-08-30 12:00:00,
2013-08-30 07:05:00,71.6,47.9,29.94,North,360,0.0,0.0,43,0.00,,,0.00,Wunderground v.1.15,2013-08-30 12:05:00,
2013-08-30 07:10:00,71.5,47.8,29.94,North,32767,0.0,0.0,43,0.00,,,0.00,Wunderground v.1.15,2013-08-30 12:10:00,
2013-08-30 07:15:00,71.5,47.2,29.94,North,32767,0.0,0.0,42,0.00,,,0.00,Wunderground v.1.15,2013-08-30 12:15:00,
2013-08-30 07:20:00,71.6,47.3,29.94,North,32767,0.0,0.0,42,0.00,,,0.00,Wunderground v.1.15,2013-08-30 12:20:00,
2013-08-30 07:30:00,72.1,47.1,29.95,North,32767,0.0,0.0,41,0.00,,,0.00,Wunderground v.1.15,2013-08-30 12:30:00,
2013-08-30 07:35:00,72.2,47.2,29.95,North,360,0.0,0.0,41,0.00,,,0.00,Wunderground v.1.15,2013-08-30 12:35:00,
2013-08-30 07:40:00,72.5,47.5,29.95,North,32767,0.0,0.0,41,0.00,,,0.00,Wunderground v.1.15,2013-08-30 12:40:00,
2013-08-30 07:50:00,73.6,47.1,29.95,North,360,0.0,0.0,39,0.00,,,0.00,Wunderground v.1.15,2013-08-30 12:50:00,
2013-08-30 07:55:00,74.1,47.6,29.95,North,32767,0.0,0.0,39,0.00,,,0.00,Wunderground v.1.15,2013-08-30 12:55:00,
2013-08-30 08:00:00,74.6,48.0,29.95,North,32767,0.0,0.0,39,0.00,,,0.00,Wunderground v.1.15,2013-08-30 13:00:00,
2013-08-30 08:05:00,75.1,48.4,29.95,North,360,0.0,0.0,39,0.00,,,0.00,Wunderground v.1.15,2013-08-30 13:05:00,
2013-08-30 08:10:00,75.4,50.1,29.95,North,360,0.0,0.0,41,0.00,,,0.00,Wunderground v.1.15,2013-08-30 13:10:00,
2013-08-30 08:20:00,76.8,56.2,29.95,North,360,0.0,0.0,49,0.00,,,0.00,Wunderground v.1.15,2013-08-30 13:20:00,
2013-08-30 08:25:00,77.9,59.4,29.94,North,32767,0.0,0.0,53,0.00,,,0.00,Wunderground v.1.15,2013-08-30 13:25:00,
2013-08-30 08:35:00,79.3,64.2,29.95,North,32767,0.0,0.0,60,0.00,,,0.00,Wunderground v.1.15,2013-08-30 13:35:00,
2013-08-30 08:40:00,79.7,66.4,29.95,North,32767,0.0,0.0,64,0.00,,,0.00,Wunderground v.1.15,2013-08-30 13:40:00,
2013-08-30 08:50:00,81.0,69.4,29.95,North,360,0.0,0.0,68,0.00,,,0.00,Wunderground v.1.15,2013-08-30 13:50:00,
2013-08-30 09:00:00,82.2,72.3,29.95,North,32767,0.0,0.0,72,0.00,,,0.00,Wunderground v.1.15,2013-08-30 14:00:00,
2013-08-30 09:10:00,83.2,74.0,29.95,North,360,0.0,0.0,74,0.00,,,0.00,Wunderground v.1.15,2013-08-30 14:10:00,
2013-08-30 09:15:00,83.8,74.6,29.95,North,32767,0.0,0.0,74,0.00,,,0.00,Wunderground v.1.15,2013-08-30 14:15:00,
2013-08-30 09:20:00,84.2,75.4,29.95,North,360,0.0,0.0,75,0.00,,,0.00,Wunderground v.1.15,2013-08-30 14:20:00,
2013-08-30 09:30:00,84.8,76.4,29.95,North,32767,0.0,0.0,76,0.00,,,0.00,Wunderground v.1.15,2013-08-30 14:30:00,
2013-08-30 09:35:00,85.2,76.8,29.96,North,32767,0.0,0.0,76,0.00,,,0.00,Wunderground v.1.15,2013-08-30 14:35:00,
2013-08-30 09:40:00,85.5,77.1,29.96,North,32767,0.0,0.0,76,0.00,,,0.00,Wunderground v.1.15,2013-08-30 14:40:00,
2013-08-30 09:45:00,85.9,77.5,29.96,North,32767,0.0,0.0,76,0.00,,,0.00,Wunderground v.1.15,2013-08-30 14:45:00,
2013-08-30 09:50:00,86.3,77.8,29.95,North,360,0.0,0.0,76,0.00,,,0.00,Wunderground v.1.15,2013-08-30 14:50:00,
2013-08-30 10:00:00,87.4,78.9,29.96,North,32767,0.0,0.0,76,0.00,,,0.00,Wunderground v.1.15,2013-08-30 15:00:00,
2013-08-30 10:05:00,87.7,79.2,29.96,North,32767,0.0,0.0,76,0.00,,,0.00,Wunderground v.1.15,2013-08-30 15:05:00,
2013-08-30 10:10:00,87.2,78.7,29.96,North,32767,0.0,0.0,76,0.00,,,0.00,Wunderground v.1.15,2013-08-30 15:10:00,
2013-08-30 10:15:00,87.4,78.9,29.95,North,32767,0.0,0.0,76,0.00,,,0.00,Wunderground v.1.15,2013-08-30 15:15:00,
2013-08-30 10:20:00,87.9,79.4,29.96,North,360,0.0,0.0,76,0.00,,,0.00,Wunderground v.1.15,2013-08-30 15:20:00,
2013-08-30 10:25:00,88.4,79.9,29.96,North,32767,0.0,0.0,76,0.00,,,0.00,Wunderground v.1.15,2013-08-30 15:25:00,
2013-08-30 10:30:00,89.1,80.1,29.96,North,32767,0.0,0.0,75,0.00,,,0.00,Wunderground v.1.15,2013-08-30 15:30:00,
2013-08-30 10:35:00,89.7,80.3,29.95,North,32767,0.0,0.0,74,0.00,,,0.00,Wunderground v.1.15,2013-08-30 15:35:00,
2013-08-30 10:40:00,89.8,79.6,29.96,North,32767,0.0,0.0,72,0.00,,,0.00,Wunderground v.1.15,2013-08-30 15:40:00,
2013-08-30 10:50:00,89.0,79.2,29.95,North,32767,0.0,0.0,73,0.00,,,0.00,Wunderground v.1.15,2013-08-30 15:50:00,
2013-08-30 10:55:00,89.4,80.0,29.95,North,32767,0.0,0.0,74,0.00,,,0.00,Wunderground v.1.15,2013-08-30 15:55:00,
2013-08-30 11:00:00,89.7,77.7,29.95,North,360,0.0,0.0,68,0.00,,,0.00,Wunderground v.1.15,2013-08-30 16:00:00,
2013-08-30 11:10:00,91.2,79.2,29.95,North,32767,0.0,0.0,68,0.00,,,0.00,Wunderground v.1.15,2013-08-30 16:10:00,
2013-08-30 11:15:00,92.1,79.6,29.95,North,32767,0.0,0.0,67,0.00,,,0.00,Wunderground v.1.15,2013-08-30 16:15:00,
2013-08-30 11:25:00,92.2,80.6,29.95,North,32767,0.0,0.0,69,0.00,,,0.00,Wunderground v.1.15,2013-08-30 16:25:00,
2013-08-30 11:30:00,91.2,80.5,29.94,North,360,0.0,0.0,71,0.00,,,0.00,Wunderground v.1.15,2013-08-30 16:30:00,
2013-08-30 11:40:00,89.4,80.0,29.95,North,360,0.0,0.0,74,0.00,,,0.00,Wunderground v.1.15,2013-08-30 16:40:00,
2013-08-30 11:45:00,88.5,79.1,29.94,North,360,0.0,0.0,74,0.00,,,0.00,Wunderground v.1.15,2013-08-30 16:45:00,
2013-08-30 11:50:00,88.2,78.4,29.94,North,32767,0.0,0.0,73,0.00,,,0.00,Wunderground v.1.15,2013-08-30 16:50:00,
2013-08-30 11:55:00,88.3,79.4,29.94,North,32767,0.0,0.0,75,0.00,,,0.00,Wunderground v.1.15,2013-08-30 16:55:00,
2013-08-30 12:05:00,91.3,80.1,29.93,North,32767,0.0,0.0,70,0.00,,,0.00,Wunderground v.1.15,2013-08-30 17:05:00,
2013-08-30 12:15:00,93.1,80.5,29.93,North,32767,0.0,0.0,67,0.00,,,0.00,Wunderground v.1.15,2013-08-30 17:15:00,
2013-08-30 12:20:00,93.8,80.7,29.93,North,360,0.0,0.0,66,0.00,,,0.00,Wunderground v.1.15,2013-08-30 17:20:00,
2013-08-30 12:25:00,94.1,80.1,29.93,North,360,0.0,0.0,64,0.00,,,0.00,Wunderground v.1.15,2013-08-30 17:25:00,
2013-08-30 12:30:00,94.8,79.7,29.93,North,32767,0.0,0.0,62,0.00,,,0.00,Wunderground v.1.15,2013-08-30 17:30:00,
2013-08-30 12:35:00,95.9,79.3,29.92,North,32767,0.0,0.0,59,0.00,,,0.00,Wunderground v.1.15,2013-08-30 17:35:00,
2013-08-30 12:45:00,96.9,79.1,29.92,North,32767,0.0,0.0,57,0.00,,,0.00,Wunderground v.1.15,2013-08-30 17:45:00,
2013-08-30 12:50:00,97.2,77.8,29.92,North,360,0.0,0.0,54,0.00,,,0.00,Wunderground v.1.15,2013-08-30 17:50:00,
2013-08-30 13:00:00,96.5,78.2,29.92,North,360,0.0,0.0,56,0.00,,,0.00,Wunderground v.1.15,2013-08-30 18:00:00,
2013-08-30 13:05:00,97.0,78.1,29.92,North,360,0.0,0.0,55,0.00,,,0.00,Wunderground v.1.15,2013-08-30 18:05:00,
2013-08-30 13:10:00,97.8,77.2,29.91,North,32767,0.0,0.0,52,0.00,,,0.00,Wunderground v.1.15,2013-08-30 18:10:00,
2013-08-30 13:15:00,98.6,78.5,29.91,North,32767,0.0,0.0,53,0.00,,,0.00,Wunderground v.1.15,2013-08-30 18:15:00,
2013-08-30 13:20:00,99.7,77.1,29.91,North,360,0.0,0.0,49,0.00,,,0.00,Wunderground v.1.15,2013-08-30 18:20:00,
2013-08-30 13:30:00,98.0,76.8,29.90,North,360,0.0,0.0,51,0.00,,,0.00,Wunderground v.1.15,2013-08-30 18:30:00,
2013-08-30 13:35:00,98.2,78.1,29.90,North,32767,0.0,0.0,53,0.00,,,0.00,Wunderground v.1.15,2013-08-30 18:35:00,
2013-08-30 13:40:00,99.4,77.5,29.90,North,32767,0.0,0.0,50,0.00,,,0.00,Wunderground v.1.15,2013-08-30 18:40:00,
2013-08-30 13:45:00,100.1,78.1,29.90,North,32767,0.0,0.0,50,0.00,,,0.00,Wunderground v.1.15,2013-08-30 18:45:00,
2013-08-30 13:50:00,99.6,77.7,29.90,North,360,0.0,0.0,50,0.00,,,0.00,Wunderground v.1.15,2013-08-30 18:50:00,
2013-08-30 13:55:00,98.8,76.9,29.89,North,360,0.0,0.0,50,0.00,,,0.00,Wunderground v.1.15,2013-08-30 18:55:00,
2013-08-30 14:00:00,98.9,77.0,29.89,North,32767,0.0,0.0,50,0.00,,,0.00,Wunderground v.1.15,2013-08-30 19:00:00,
2013-08-30 14:10:00,100.5,76.6,29.88,North,32767,0.0,0.0,47,0.00,,,0.00,Wunderground v.1.15,2013-08-30 19:10:00,
2013-08-30 14:20:00,102.3,78.2,29.88,North,32767,0.0,0.0,47,0.00,,,0.00,Wunderground v.1.15,2013-08-30 19:20:00,
2013-08-30 14:30:00,100.3,76.4,29.88,North,32767,0.0,0.0,47,0.00,,,0.00,Wunderground v.1.15,2013-08-30 19:30:00,
2013-08-30 14:40:00,99.6,76.4,29.88,North,32767,0.0,0.0,48,0.00,,,0.00,Wunderground v.1.15,2013-08-30 19:40:00,
2013-08-30 14:45:00,100.4,75.9,29.87,North,32767,0.0,0.0,46,0.00,,,0.00,Wunderground v.1.15,2013-08-30 19:45:00,
2013-08-30 14:50:00,100.7,77.4,29.87,North,32767,0.0,0.0,48,0.00,,,0.00,Wunderground v.1.15,2013-08-30 19:50:00,
2013-08-30 14:55:00,101.1,77.8,29.87,North,32767,0.0,0.0,48,0.00,,,0.00,Wunderground v.1.15,2013-08-30 19:55:00,
2013-08-30 15:00:00,101.0,77.1,29.87,North,360,0.0,0.0,47,0.00,,,0.00,Wunderground v.1.15,2013-08-30 20:00:00,
2013-08-30 15:05:00,101.0,76.4,29.86,North,32767,0.0,0.0,46,0.00,,,0.00,Wunderground v.1.15,2013-08-30 20:05:00,
2013-08-30 15:10:00,101.3,77.3,29.86,North,32767,0.0,0.0,47,0.00,,,0.00,Wunderground v.1.15,2013-08-30 20:10:00,
2013-08-30 15:15:00,101.9,75.9,29.86,North,32767,0.0,0.0,44,0.00,,,0.00,Wunderground v.1.15,2013-08-30 20:15:00,
2013-08-30 15:20:00,100.9,77.0,29.86,North,32767,0.0,0.0,47,0.00,,,0.00,Wunderground v.1.15,2013-08-30 20:20:00,
2013-08-30 15:30:00,99.5,75.7,29.86,North,360,0.0,0.0,47,0.00,,,0.00,Wunderground v.1.15,2013-08-30 20:30:00,
2013-08-30 15:35:00,98.7,76.2,29.85,North,360,0.0,0.0,49,0.00,,,0.00,Wunderground v.1.15,2013-08-30 20:35:00,
2013-08-30 15:40:00,97.8,76.0,29.85,North,32767,0.0,0.0,50,0.00,,,0.00,Wunderground v.1.15,2013-08-30 20:40:00,
2013-08-30 15:45:00,97.8,76.6,29.85,North,32767,0.0,0.0,51,0.00,,,0.00,Wunderground v.1.15,2013-08-30 20:45:00,
2013-08-30 15:50:00,98.4,77.7,29.85,North,32767,0.0,0.0,52,0.00,,,0.00,Wunderground v.1.15,2013-08-30 20:50:00,
2013-08-30 15:55:00,99.0,77.7,29.84,North,360,0.0,0.0,51,0.00,,,0.00,Wunderground v.1.15,2013-08-30 20:55:00,
2013-08-30 16:00:00,99.1,77.2,29.84,North,32767,0.0,0.0,50,0.00,,,0.00,Wunderground v.1.15,2013-08-30 21:00:00,
2013-08-30 16:05:00,99.2,76.1,29.84,North,32767,0.0,0.0,48,0.00,,,0.00,Wunderground v.1.15,2013-08-30 21:05:00,
2013-08-30 16:15:00,98.6,77.3,29.84,North,32767,0.0,0.0,51,0.00,,,0.00,Wunderground v.1.15,2013-08-30 21:15:00,
2013-08-30 16:20:00,97.8,76.6,29.84,North,360,0.0,0.0,51,0.00,,,0.00,Wunderground v.1.15,2013-08-30 21:20:00,
2013-08-30 16:30:00,96.5,77.1,29.84,North,360,0.0,0.0,54,0.00,,,0.00,Wunderground v.1.15,2013-08-30 21:30:00,
2013-08-30 16:35:00,95.5,76.8,29.84,North,360,0.0,0.0,55,0.00,,,0.00,Wunderground v.1.15,2013-08-30 21:35:00,
2013-08-30 16:40:00,95.2,78.1,29.83,North,32767,0.0,0.0,58,0.00,,,0.00,Wunderground v.1.15,2013-08-30 21:40:00,
2013-08-30 16:45:00,95.0,77.9,29.83,North,32767,0.0,0.0,58,0.00,,,0.00,Wunderground v.1.15,2013-08-30 21:45:00,
2013-08-30 16:55:00,94.5,78.5,29.83,North,32767,0.0,0.0,60,0.00,,,0.00,Wunderground v.1.15,2013-08-30 21:55:00,
2013-08-30 17:00:00,94.1,78.1,29.83,North,32767,0.0,0.0,60,0.00,,,0.00,Wunderground v.1.15,2013-08-30 22:00:00,
2013-08-30 17:05:00,93.5,77.5,29.83,North,360,0.0,0.0,60,0.00,,,0.00,Wunderground v.1.15,2013-08-30 22:05:00,
2013-08-30 17:10:00,92.7,77.3,29.83,North,32767,0.0,0.0,61,0.00,,,0.00,Wunderground v.1.15,2013-08-30 22:10:00,
2013-08-30 17:15:00,92.0,76.6,29.83,North,32767,0.0,0.0,61,0.00,,,0.00,Wunderground v.1.15,2013-08-30 22:15:00,
2013-08-30 17:20:00,91.7,77.3,29.83,North,360,0.0,0.0,63,0.00,,,0.00,Wunderground v.1.15,2013-08-30 22:20:00,
2013-08-30 17:25:00,91.6,77.2,29.83,North,360,0.0,0.0,63,0.00,,,0.00,Wunderground v.1.15,2013-08-30 22:25:00,
2013-08-30 17:30:00,91.4,77.0,29.83,North,32767,0.0,0.0,63,0.00,,,0.00,Wunderground v.1.15,2013-08-30 22:30:00,
2013-08-30 17:40:00,91.0,77.1,29.83,North,32767,0.0,0.0,64,0.00,,,0.00,Wunderground v.1.15,2013-08-30 22:40:00,
2013-08-30 17:45:00,90.5,76.7,29.83,North,32767,0.0,0.0,64,0.00,,,0.00,Wunderground v.1.15,2013-08-30 22:45:00,
2013-08-30 17:50:00,90.2,77.3,29.83,North,360,0.0,0.0,66,0.00,,,0.00,Wunderground v.1.15,2013-08-30 22:50:00,
2013-08-30 17:55:00,89.9,77.0,29.83,North,360,0.0,0.0,66,0.00,,,0.00,Wunderground v.1.15,2013-08-30 22:55:00,
2013-08-30 18:00:00,89.6,76.3,29.83,North,32767,0.0,0.0,65,0.00,,,0.00,Wunderground v.1.15,2013-08-30 23:00:00,
2013-08-30 18:05:00,89.3,76.4,29.83,North,32767,0.0,0.0,66,0.00,,,0.00,Wunderground v.1.15,2013-08-30 23:05:00,
2013-08-30 18:10:00,89.2,76.8,29.83,North,32767,0.0,0.0,67,0.00,,,0.00,Wunderground v.1.15,2013-08-30 23:10:00,
2013-08-30 18:20:00,88.8,76.9,29.83,North,32767,0.0,0.0,68,0.00,,,0.00,Wunderground v.1.15,2013-08-30 23:20:00,
2013-08-30 18:25:00,88.7,76.3,29.83,North,32767,0.0,0.0,67,0.00,,,0.00,Wunderground v.1.15,2013-08-30 23:25:00,
2013-08-30 18:30:00,88.5,76.1,29.83,North,360,0.0,0.0,67,0.00,,,0.00,Wunderground v.1.15,2013-08-30 23:30:00,
2013-08-30 18:35:00,88.3,76.4,29.83,North,360,0.0,0.0,68,0.00,,,0.00,Wunderground v.1.15,2013-08-30 23:35:00,
2013-08-30 18:40:00,88.0,76.1,29.83,North,32767,0.0,0.0,68,0.00,,,0.00,Wunderground v.1.15,2013-08-30 23:40:00,
2013-08-30 18:45:00,87.7,76.3,29.83,North,32767,0.0,0.0,69,0.00,,,0.00,Wunderground v.1.15,2013-08-30 23:45:00,
2013-08-30 18:50:00,87.5,75.6,29.83,North,32767,0.0,0.0,68,0.00,,,0.00,Wunderground v.1.15,2013-08-30 23:50:00,
2013-08-30 19:00:00,87.1,76.1,29.83,North,360,0.0,0.0,70,0.00,,,0.00,Wunderground v.1.15,2013-08-31 00:00:00,
2013-08-30 19:05:00,86.9,75.9,29.83,North,360,0.0,0.0,70,0.00,,,0.00,Wunderground v.1.15,2013-08-31 00:05:00,
2013-08-30 19:10:00,86.6,76.1,29.83,North,32767,0.0,0.0,71,0.00,,,0.00,Wunderground v.1.15,2013-08-31 00:10:00,
2013-08-30 19:15:00,86.4,76.3,29.83,North,32767,0.0,0.0,72,0.00,,,0.00,Wunderground v.1.15,2013-08-31 00:15:00,
2013-08-30 19:20:00,86.1,76.0,29.84,North,32767,0.0,0.0,72,0.00,,,0.00,Wunderground v.1.15,2013-08-31 00:20:00,
2013-08-30 19:25:00,85.8,75.7,29.84,North,360,0.0,0.0,72,0.00,,,0.00,Wunderground v.1.15,2013-08-31 00:25:00,
2013-08-30 19:30:00,85.6,75.9,29.84,North,32767,0.0,0.0,73,0.00,,,0.00,Wunderground v.1.15,2013-08-31 00:30:00,
2013-08-30 19:35:00,85.2,76.0,29.84,North,32767,0.0,0.0,74,0.00,,,0.00,Wunderground v.1.15,2013-08-31 00:35:00,
2013-08-30 19:45:00,84.6,75.8,29.84,North,32767,0.0,0.0,75,0.00,,,0.00,Wunderground v.1.15,2013-08-31 00:45:00,
2013-08-30 19:50:00,84.3,75.5,29.84,North,32767,0.0,0.0,75,0.00,,,0.00,Wunderground v.1.15,2013-08-31 00:50:00,
2013-08-30 19:55:00,84.1,75.3,29.84,North,32767,0.0,0.0,75,0.00,,,0.00,Wunderground v.1.15,2013-08-31 00:55:00,
2013-08-30 20:00:00,83.8,75.4,29.85,North,360,0.0,0.0,76,0.00,,,0.00,Wunderground v.1.15,2013-08-31 01:00:00,
2013-08-30 20:05:00,83.5,75.1,29.85,North,32767,0.0,0.0,76,0.00,,,0.00,Wunderground v.1.15,2013-08-31 01:05:00,
2013-08-30 20:10:00,83.3,74.9,29.85,North,32767,0.0,0.0,76,0.00,,,0.00,Wunderground v.1.15,2013-08-31 01:10:00,
2013-08-30 20:20:00,82.9,74.9,29.85,North,32767,0.0,0.0,77,0.00,,,0.00,Wunderground v.1.15,2013-08-31 01:20:00,
2013-08-30 20:25:00,82.7,74.8,29.85,North,32767,0.0,0.0,77,0.00,,,0.00,Wunderground v.1.15,2013-08-31 01:25:00,
2013-08-30 20:30:00,82.5,74.6,29.85,North,32767,0.0,0.0,77,0.00,,,0.00,Wunderground v.1.15,2013-08-31 01:30:00,
2013-08-30 20:35:00,82.2,74.3,29.85,North,360,0.0,0.0,77,0.00,,,0.00,Wunderground v.1.15,2013-08-31 01:35:00,
2013-08-30 20:40:00,82.0,74.1,29.85,North,360,0.0,0.0,77,0.00,,,0.00,Wunderground v.1.15,2013-08-31 01:40:00,
2013-08-30 20:45:00,81.8,73.9,29.85,North,32767,0.0,0.0,77,0.00,,,0.00,Wunderground v.1.15,2013-08-31 01:45:00,
2013-08-30 20:50:00,81.6,73.7,29.85,North,32767,0.0,0.0,77,0.00,,,0.00,Wunderground v.1.15,2013-08-31 01:50:00,
2013-08-30 20:55:00,81.3,73.4,29.86,North,32767,0.0,0.0,77,0.00,,,0.00,Wunderground v.1.15,2013-08-31 01:55:00,
2013-08-30 21:00:00,81.2,73.3,29.85,North,360,0.0,0.0,77,0.00,,,0.00,Wunderground v.1.15,2013-08-31 02:00:00,
2013-08-30 21:05:00,81.0,73.1,29.85,North,360,0.0,0.0,77,0.00,,,0.00,Wunderground v.1.15,2013-08-31 02:05:00,
2013-08-30 21:10:00,80.9,73.0,29.86,North,32767,0.0,0.0,77,0.00,,,0.00,Wunderground v.1.15,2013-08-31 02:10:00,
2013-08-30 21:20:00,80.7,72.8,29.86,North,32767,0.0,0.0,77,0.00,,,0.00,Wunderground v.1.15,2013-08-31 02:20:00,
2013-08-30 21:25:00,80.6,72.7,29.86,North,32767,0.0,0.0,77,0.00,,,0.00,Wunderground v.1.15,2013-08-31 02:25:00,
2013-08-30 21:30:00,80.5,72.2,29.86,North,32767,0.0,0.0,76,0.00,,,0.00,Wunderground v.1.15,2013-08-31 02:30:00,
2013-08-30 21:40:00,80.3,72.0,29.86,North,360,0.0,0.0,76,0.00,,,0.00,Wunderground v.1.15,2013-08-31 02:40:00,
2013-08-30 21:50:00,80.1,71.5,29.86,North,32767,0.0,0.0,75,0.00,,,0.00,Wunderground v.1.15,2013-08-31 02:50:00,
2013-08-30 21:55:00,80.0,71.4,29.86,North,32767,0.0,0.0,75,0.00,,,0.00,Wunderground v.1.15,2013-08-31 02:55:00,
2013-08-30 22:00:00,79.9,71.3,29.86,North,32767,0.0,0.0,75,0.00,,,0.00,Wunderground v.1.15,2013-08-31 03:00:00,
2013-08-30 22:10:00,79.7,70.7,29.86,North,32767,0.0,0.0,74,0.00,,,0.00,Wunderground v.1.15,2013-08-31 03:10:00,
2013-08-30 22:15:00,79.6,70.6,29.86,North,360,0.0,0.0,74,0.00,,,0.00,Wunderground v.1.15,2013-08-31 03:15:00,
2013-08-30 22:20:00,79.5,70.1,29.86,North,32767,0.0,0.0,73,0.00,,,0.00,Wunderground v.1.15,2013-08-31 03:20:00,
2013-08-30 22:25:00,79.4,70.0,29.86,North,360,0.0,0.0,73,0.00,,,0.00,Wunderground v.1.15,2013-08-31 03:25:00,
2013-08-30 22:30:00,79.3,69.5,29.86,North,32767,0.0,0.0,72,0.00,,,0.00,Wunderground v.1.15,2013-08-31 03:30:00,
2013-08-30 22:35:00,79.2,69.4,29.86,North,32767,0.0,0.0,72,0.00,,,0.00,Wunderground v.1.15,2013-08-31 03:35:00,
2013-08-30 22:40:00,79.1,69.3,29.86,North,32767,0.0,0.0,72,0.00,,,0.00,Wunderground v.1.15,2013-08-31 03:40:00,
2013-08-30 22:50:00,78.9,68.7,29.86,North,32767,0.0,0.0,71,0.00,,,0.00,Wunderground v.1.15,2013-08-31 03:50:00,
2013-08-30 22:55:00,78.7,68.5,29.86,North,360,0.0,0.0,71,0.00,,,0.00,Wunderground v.1.15,2013-08-31 03:55:00,
2013-08-30 23:00:00,78.7,68.5,29.86,North,32767,0.0,0.0,71,0.00,,,0.00,Wunderground v.1.15,2013-08-31 04:00:00,
2013-08-30 23:05:00,78.7,68.1,29.85,North,32767,0.0,0.0,70,0.00,,,0.00,Wunderground v.1.15,2013-08-31 04:05:00,
2013-08-30 23:10:00,78.7,68.1,29.85,North,32767,0.0,0.0,70,0.00,,,0.00,Wunderground v.1.15,2013-08-31 04:10:00,
2013-08-30 23:15:00,78.5,67.9,29.86,North,32767,0.0,0.0,70,0.00,,,0.00,Wunderground v.1.15,2013-08-31 04:15:00,
2013-08-30 23:20:00,78.4,67.4,29.86,North,32767,0.0,0.0,69,0.00,,,0.00,Wunderground v.1.15,2013-08-31 04:20:00,
2013-08-30 23:25:00,78.2,67.2,29.85,North,32767,0.0,0.0,69,0.00,,,0.00,Wunderground v.1.15,2013-08-31 04:25:00,
2013-08-30 23:30:00,78.1,66.7,29.85,North,360,0.0,0.0,68,0.00,,,0.00,Wunderground v.1.15,2013-08-31 04:30:00,
2013-08-30 23:35:00,78.0,66.6,29.85,North,360,0.0,0.0,68,0.00,,,0.00,Wunderground v.1.15,2013-08-31 04:35:00,
2013-08-30 23:40:00,77.9,66.5,29.85,North,32767,0.0,0.0,68,0.00,,,0.00,Wunderground v.1.15,2013-08-31 04:40:00,
2013-08-30 23:45:00,77.8,66.0,29.85,North,32767,0.0,0.0,67,0.00,,,0.00,Wunderground v.1.15,2013-08-31 04:45:00,
2013-08-30 23:55:00,77.5,65.2,29.85,North,32767,0.0,0.0,66,0.00,,,0.00,Wunderground v.1.15,2013-08-31 04:55:00,